This is the latest recevied weather packets stored in our database for station/object AD7ZD. If no packets are shown the sender has not sent any weather packets the latest 10 day(s).
| Time | Temp. | Humidity | Pressure | Rain* | Wind** | Luminosity | Snow |
|---|---|---|---|---|---|---|---|
| 1777986259 | 7.78° C | 93% | 1008.6 hPa | 4.83 mm | - | 0 W/m² | - |
| 1777985956 | 7.78° C | 93% | 1008.4 hPa | 6.1 mm | - | 0 W/m² | - |
| 1777985653 | 7.78° C | 92% | 1008.6 hPa | 4.32 mm | - | 0 W/m² | - |
| 1777985349 | 8.33° C | 92% | 1008.8 hPa | 4.83 mm | - | 0 W/m² | - |
| 1777985046 | 8.33° C | 92% | 1008.8 hPa | 3.56 mm | - | 0 W/m² | - |
| 1777984742 | 8.33° C | 92% | 1008.8 hPa | 3.05 mm | - | 0 W/m² | - |
| 1777984439 | 7.78° C | 92% | 1008.3 hPa | 3.05 mm | - | 0 W/m² | - |
| 1777984135 | 8.33° C | 92% | 1008.1 hPa | 1.27 mm | - | 0 W/m² | - |
| 1777983832 | 8.33° C | 92% | 1007.9 hPa | 0.51 mm | - | 0 W/m² | - |
| 1777983529 | 8.33° C | 92% | 1008 hPa | 0 mm | - | 0 W/m² | - |
| 1777983226 | 8.33° C | 92% | 1007.9 hPa | 0 mm | - | 0 W/m² | - |
| 1777982922 | 8.33° C | 92% | 1007.8 hPa | 0 mm | - | 0 W/m² | - |
| 1777982618 | 8.33° C | 91% | 1007.8 hPa | 0 mm | - | 0 W/m² | - |
| 1777982317 | 8.33° C | 91% | 1007.8 hPa | 0 mm | - | 0 W/m² | - |
| 1777982014 | 8.33° C | 91% | 1007.9 hPa | 0 mm | - | 0 W/m² | - |
| 1777981712 | 8.33° C | 91% | 1008 hPa | 0 mm | - | 0 W/m² | - |
| 1777981409 | 8.33° C | 91% | 1008 hPa | 0 mm | - | 0 W/m² | - |
| 1777981105 | 8.33° C | 91% | 1008 hPa | 0 mm | - | 0 W/m² | - |
| 1777980802 | 8.33° C | 91% | 1007.9 hPa | 0 mm | - | 0 W/m² | - |
| 1777980497 | 8.33° C | 91% | 1008 hPa | 0.51 mm | - | 0 W/m² | - |
| 1777980195 | 8.33° C | 90% | 1008 hPa | 1.27 mm | - | 0 W/m² | - |
| 1777979890 | 8.33° C | 90% | 1008.1 hPa | 2.29 mm | - | 0 W/m² | - |
| 1777979586 | 8.33° C | 89% | 1008 hPa | 3.05 mm | - | 0 W/m² | - |
| 1777979282 | 8.33° C | 88% | 1008 hPa | 2.29 mm | - | 0 W/m² | - |
| 1777978980 | 8.33° C | 87% | 1007.9 hPa | 1.27 mm | - | 0 W/m² | - |
* Rain latest hour (hover to see other rain measurements)
** Current wind speed in m/s (hover to see current wind gust speed)